Weather History for Victorville, CA

Change the Weather History Date:

Tuesday, July 2, 2013

  Actual Average (KSBD) Record (KSBD)
Temperature  
Mean Temperature 86 °F -  
Max Temperature 102 °F 92 °F 100 °F (2011)
Min Temperature 71 °F 58 °F 60 °F (2010)
Cooling Degree Days 22    
Growing Degree Days 36 (Base 50)    
Moisture  
Dew Point 41 °F    
Average Humidity 21    
Maximum Humidity 32    
Minimum Humidity 11    
Precipitation  
Precipitation 0.00 in - - ()
Sea Level Pressure  
Sea Level Pressure 30.00 in    
Wind  
Wind Speed 7 mph (South)    
Max Wind Speed 22 mph    
Max Gust Speed 29 mph    
Visibility 10 miles    
Events      
Averages and records for this station are not official NWS values.
T = Trace of Precipitation, MM = Missing Value Source: NWS Daily Summary

Daily Weather History Graph

Daily Weather History Graph

Search for Another Location

Airport:

Trip Planner

Search our weather history database for the weather conditions in past years. The results will help you decide how hot, cold, wet, or windy it might be!

Date:

Astronomy

Jul. 02, 2013 Rise Set
Actual Time 5:40 AM PDT 8:06 PM PDT
Civil Twilight 5:11 AM PDT 8:35 PM PDT
Nautical Twilight 4:35 AM PDT 9:11 PM PDT
Astronomical Twilight 3:55 AM PDT 9:51 PM PDT
Moon 1:39 AM PDT (7/2) 3:30 PM PDT (7/2)
Length of Visible Light 15h 24m
Length of Day
14h 25m
Waning Crescent, 25% of the Moon is Illuminated
Jul 2
Waning Crescent
Jul 8
New
Jul 15
First Quarter
Jul 22
Full
Jul 29
Last Quarter

Hourly Weather History & Observations

Time (PDT) Temp. Dew Point Humidity Pressure Visibility Wind Dir Wind Speed Gust Speed Precip Events Conditions
12:15 AM 80.6 °F 39.2 °F 23% 29.98 in 10.0 mi South 4.6 mph - N/A   Clear
12:35 AM 78.8 °F 39.2 °F 24% 29.98 in 10.0 mi South 5.8 mph - N/A   Clear
12:55 AM 78.8 °F 39.2 °F 24% 29.98 in 10.0 mi South 5.8 mph - N/A   Clear
1:15 AM 80.6 °F 39.2 °F 23% 29.98 in 10.0 mi SE 8.1 mph - N/A   Clear
1:35 AM 80.6 °F 41.0 °F 24% 29.97 in 10.0 mi SSE 9.2 mph - N/A   Clear
1:55 AM 80.6 °F 39.2 °F 23% 29.98 in 10.0 mi SSE 6.9 mph - N/A   Clear
2:15 AM 78.8 °F 41.0 °F 26% 29.98 in 10.0 mi SSE 5.8 mph - N/A   Clear
2:35 AM 75.2 °F 39.2 °F 27% 29.98 in 10.0 mi Calm Calm - N/A   Clear
2:55 AM 77.0 °F 41.0 °F 28% 29.99 in 10.0 mi Calm Calm - N/A   Clear
3:15 AM 78.8 °F 41.0 °F 26% 29.99 in 10.0 mi SSE 3.5 mph - N/A   Clear
3:35 AM 77.0 °F 41.0 °F 28% 29.98 in 10.0 mi SE 8.1 mph - N/A   Clear
3:55 AM 77.0 °F 41.0 °F 28% 29.99 in 10.0 mi South 3.5 mph - N/A   Clear
4:15 AM 73.4 °F 39.2 °F 29% 29.98 in 10.0 mi South 5.8 mph - N/A   Clear
4:35 AM 73.4 °F 39.2 °F 29% 29.99 in 10.0 mi South 5.8 mph - N/A   Clear
4:55 AM 71.6 °F 39.2 °F 31% 29.99 in 10.0 mi South 5.8 mph - N/A   Clear
5:15 AM 73.4 °F 39.2 °F 29% 29.99 in 10.0 mi SSE 9.2 mph - N/A   Clear
5:35 AM 75.2 °F 39.2 °F 27% 30.01 in 10.0 mi SSE 8.1 mph - N/A   Clear
5:55 AM 75.2 °F 41.0 °F 29% 30.00 in 10.0 mi South 5.8 mph - N/A   Clear
6:15 AM 73.4 °F 39.2 °F 29% 30.01 in 10.0 mi South 6.9 mph - N/A   Clear
6:35 AM 73.4 °F 41.0 °F 31% 30.01 in 7.0 mi South 4.6 mph - N/A   Clear
6:55 AM 75.2 °F 41.0 °F 29% 30.01 in 10.0 mi SE 5.8 mph - N/A   Clear
7:15 AM 80.6 °F 41.0 °F 24% 30.01 in 10.0 mi SSE 5.8 mph - N/A   Clear
7:35 AM 82.4 °F 41.0 °F 23% 30.01 in 10.0 mi South 5.8 mph - N/A   Scattered Clouds
7:55 AM 82.4 °F 41.0 °F 23% 30.02 in 10.0 mi ESE 5.8 mph - N/A   Scattered Clouds
8:15 AM 84.2 °F 41.0 °F 22% 30.03 in 10.0 mi Calm Calm - N/A   Scattered Clouds
8:35 AM 84.2 °F 41.0 °F 22% 30.04 in 10.0 mi Calm Calm - N/A   Scattered Clouds
8:55 AM 87.8 °F 41.0 °F 19% 30.04 in 10.0 mi Calm Calm - N/A   Scattered Clouds
9:15 AM 87.8 °F 41.0 °F 19% 30.02 in 10.0 mi NW 3.5 mph - N/A   Scattered Clouds
9:35 AM 89.6 °F 37.4 °F 16% 30.04 in 10.0 mi SE 4.6 mph - N/A   Scattered Clouds
9:55 AM 89.6 °F 39.2 °F 17% 30.05 in 10.0 mi Calm Calm - N/A   Scattered Clouds
10:15 AM 89.6 °F 37.4 °F 16% 30.05 in 10.0 mi South 4.6 mph - N/A   Scattered Clouds
10:35 AM 91.4 °F 37.4 °F 15% 30.06 in 10.0 mi South 4.6 mph - N/A   Scattered Clouds
10:55 AM 91.4 °F 37.4 °F 15% 30.06 in 10.0 mi South 4.6 mph - N/A   Scattered Clouds
11:15 AM 93.2 °F 37.4 °F 14% 30.05 in 10.0 mi SSE 5.8 mph - N/A   Scattered Clouds
11:35 AM 96.8 °F 37.4 °F 13% 30.05 in 10.0 mi SSW 3.5 mph - N/A   Scattered Clouds
11:55 AM 98.6 °F 39.2 °F 13% 30.04 in 10.0 mi SSW 6.9 mph - N/A   Scattered Clouds
12:15 PM 100.4 °F 37.4 °F 11% 30.03 in 10.0 mi South 5.8 mph - N/A   Scattered Clouds
12:35 PM 100.4 °F 39.2 °F 12% 30.03 in 10.0 mi SW 11.5 mph 17.3 mph N/A   Scattered Clouds
12:55 PM 100.4 °F 37.4 °F 11% 30.03 in 10.0 mi SSW 11.5 mph 17.3 mph N/A   Scattered Clouds
1:15 PM 102.2 °F 39.2 °F 11% 30.03 in 10.0 mi SW 10.4 mph 19.6 mph N/A   Scattered Clouds
1:35 PM 102.2 °F 39.2 °F 11% 30.02 in 10.0 mi SSE 8.1 mph - N/A   Scattered Clouds
1:55 PM 100.4 °F 39.2 °F 12% 30.01 in 10.0 mi South 10.4 mph - N/A   Scattered Clouds
2:15 PM 102.2 °F 39.2 °F 11% 30.00 in 10.0 mi South 6.9 mph 16.1 mph N/A   Scattered Clouds
2:35 PM 102.2 °F 39.2 °F 11% 29.99 in 10.0 mi South 10.4 mph - N/A   Scattered Clouds
2:55 PM 102.2 °F 39.2 °F 11% 29.98 in 10.0 mi South 4.6 mph - N/A   Scattered Clouds
3:15 PM 102.2 °F 39.2 °F 11% 29.98 in 10.0 mi South 11.5 mph 16.1 mph N/A   Scattered Clouds
3:35 PM 102.2 °F 41.0 °F 12% 29.97 in 10.0 mi South 11.5 mph 21.9 mph N/A   Scattered Clouds
3:55 PM 102.2 °F 42.8 °F 13% 29.97 in 10.0 mi SSW 10.4 mph 16.1 mph N/A   Scattered Clouds
4:15 PM 102.2 °F 41.0 °F 12% 29.96 in 10.0 mi West 17.3 mph 23.0 mph N/A   Scattered Clouds
4:35 PM 100.4 °F 41.0 °F 13% 29.95 in 10.0 mi WNW 17.3 mph 23.0 mph N/A   Scattered Clouds
4:55 PM 100.4 °F 41.0 °F 13% 29.95 in 10.0 mi WNW 18.4 mph - N/A   Scattered Clouds
5:15 PM 100.4 °F 39.2 °F 12% 29.94 in 10.0 mi WNW 19.6 mph 25.3 mph N/A   Scattered Clouds
5:35 PM 100.4 °F 39.2 °F 12% 29.94 in 10.0 mi WNW 20.7 mph 28.8 mph N/A   Scattered Clouds
5:55 PM 100.4 °F 39.2 °F 12% 29.94 in 10.0 mi West 18.4 mph 28.8 mph N/A   Clear
6:15 PM 98.6 °F 39.2 °F 13% 29.94 in 10.0 mi West 18.4 mph 27.6 mph N/A   Clear
6:35 PM 96.8 °F 39.2 °F 14% 29.95 in 10.0 mi West 21.9 mph 26.5 mph N/A   Clear
6:55 PM 96.8 °F 42.8 °F 16% 29.96 in 10.0 mi SSW 9.2 mph 23.0 mph N/A   Clear
7:15 PM 93.2 °F 44.6 °F 19% 29.97 in 10.0 mi South 11.5 mph - N/A   Clear
7:35 PM 91.4 °F 46.4 °F 21% 29.97 in 10.0 mi South 11.5 mph - N/A   Clear
7:55 PM 89.6 °F 46.4 °F 22% 29.98 in 10.0 mi South 11.5 mph - N/A   Clear
8:15 PM 87.8 °F 46.4 °F 24% 29.98 in 10.0 mi South 5.8 mph - N/A   Clear
8:35 PM 86.0 °F 48.2 °F 27% 29.99 in 10.0 mi SSE 12.7 mph - N/A   Clear
8:55 PM 84.2 °F 46.4 °F 27% 29.99 in 10.0 mi SSE 11.5 mph - N/A   Clear
9:15 PM 82.4 °F 46.4 °F 28% 30.00 in 10.0 mi SSE 11.5 mph - N/A   Clear
9:35 PM 82.4 °F 46.4 °F 28% 30.00 in 10.0 mi SSE 11.5 mph - N/A   Clear
9:55 PM 82.4 °F 46.4 °F 28% 30.00 in 10.0 mi SE 12.7 mph - N/A   Clear
10:15 PM 80.6 °F 48.2 °F 32% 30.01 in 10.0 mi ESE 8.1 mph - N/A   Clear
10:35 PM 80.6 °F 48.2 °F 32% 30.00 in 10.0 mi SE 8.1 mph - N/A   Clear
10:55 PM 80.6 °F 48.2 °F 32% 30.00 in 10.0 mi SE 8.1 mph - N/A   Clear
11:15 PM 80.6 °F 48.2 °F 32% 30.00 in 10.0 mi SE 9.2 mph - N/A   Clear
11:55 PM 80.6 °F 46.4 °F 30% 30.00 in 10.0 mi SE 9.2 mph - N/A   Clear